| time (UTC) | temp C | wind direction | speed KPH | gust KPH | rain 1hr cm | rain 24hr cm | rain mn cm | humidity % | barometer mb |
| 20260906112630 | 26 | 90 | 3.2 | 16.1 | 0.00 | 0.00 | 0.00 | 63 | 1005.8 |
| 20260906112129 | 26 | 338 | 4.8 | 9.7 | 0.00 | 0.00 | 0.00 | 62 | 1005.9 |
| 20260906111628 | 26 | 293 | 4.8 | 11.3 | 0.00 | 0.00 | 0.00 | 61 | 1005.9 |
| 20260906111129 | 26 | 0 | 6.4 | 19.3 | 0.00 | 0.00 | 0.00 | 61 | 1006.1 |
| 20260906110628 | 26 | 0 | 4.8 | 17.7 | 0.00 | 0.00 | 0.00 | 63 | 1006.2 |
| 20260906110128 | 26 | 315 | 1.6 | 17.7 | 0.00 | 0.00 | 0.00 | 63 | 1006.3 |
| 20260906105628 | 26 | 0 | 3.2 | 12.9 | 0.00 | 0.00 | 0.00 | 60 | 1006.2 |
| 20260906105126 | 26 | 315 | 4.8 | 20.9 | 0.00 | 0.00 | 0.00 | 61 | 1006.2 |
| 20260906104626 | 26 | 0 | 6.4 | 17.7 | 0.00 | 0.00 | 0.00 | 61 | 1006.2 |
| 20260906104126 | 26 | 0 | 3.2 | 17.7 | 0.00 | 0.00 | 0.00 | 61 | 1006.1 |
| 20260906103626 | 26 | 0 | 4.8 | 16.1 | 0.00 | 0.00 | 0.00 | 61 | 1006.2 |
| 20260906103126 | 25 | 315 | 3.2 | 17.7 | 0.00 | 0.00 | 0.00 | 64 | 1006.1 |
| 20260906102626 | 25 | 315 | 4.8 | 14.5 | 0.00 | 0.00 | 0.00 | 64 | 1006.1 |
| 20260906102125 | 26 | 315 | 3.2 | 14.5 | 0.00 | 0.00 | 0.00 | 64 | 1006.2 |
| 20260906101624 | 26 | 270 | 6.4 | 17.7 | 0.00 | 0.00 | 0.00 | 60 | 1006.1 |
| 20260906101125 | 27 | 315 | 3.2 | 20.9 | 0.00 | 0.00 | 0.00 | 57 | 1005.8 |
| 20260906100624 | 28 | 315 | 6.4 | 20.9 | 0.00 | 0.00 | 0.00 | 54 | 1005.8 |
| 20260906100125 | 28 | 225 | 6.4 | 20.9 | 0.00 | 0.00 | 0.00 | 51 | 1005.7 |
| 20260906095625 | 28 | 135 | 4.8 | 17.7 | 0.00 | 0.00 | 0.00 | 54 | 1005.7 |
| 20260906095122 | 28 | 270 | 4.8 | 22.5 | 0.00 | 0.00 | 0.00 | 52 | 1005.7 |
| 20260906094623 | 30 | 270 | 6.4 | 30.6 | 0.00 | 0.00 | 0.00 | 49 | 1005.6 |
| 20260906094122 | 31 | 225 | 3.2 | 19.3 | 0.00 | 0.00 | 0.00 | 43 | 1005.5 |
| 20260906093622 | 30 | 225 | 9.7 | 20.9 | 0.00 | 0.00 | 0.00 | 43 | 1005.4 |
| 20260906093122 | 30 | 270 | 8.0 | 24.1 | 0.00 | 0.00 | 0.00 | 43 | 1005.4 |
| 20260906092623 | 30 | 315 | 3.2 | 20.9 | 0.00 | 0.00 | 0.00 | 42 | 1005.4 |
| 20260906092121 | 31 | 270 | 11.3 | 30.6 | 0.00 | 0.00 | 0.00 | 41 | 1005.4 |
| 20260906091621 | 32 | 270 | 4.8 | 22.5 | 0.00 | 0.00 | 0.00 | 39 | 1005.4 |
| 20260906091121 | 31 | 270 | 12.9 | 24.1 | 0.00 | 0.00 | 0.00 | 39 | 1005.4 |
| 20260906090621 | 32 | 203 | 8.0 | 22.5 | 0.00 | 0.00 | 0.00 | 38 | 1005.3 |
| 20260906090121 | 32 | 0 | 12.9 | 25.7 | 0.00 | 0.00 | 0.00 | 38 | 1005.4 |
| 20260906085621 | 31 | 270 | 8.0 | 25.7 | 0.00 | 0.00 | 0.00 | 38 | 1005.3 |
| 20260906085119 | 31 | 270 | 8.0 | 19.3 | 0.00 | 0.00 | 0.00 | 37 | 1005.5 |
| 20260906084619 | 31 | 270 | 12.9 | 22.5 | 0.00 | 0.00 | 0.00 | 37 | 1005.6 |
| 20260906084118 | 32 | 225 | 9.7 | 24.1 | 0.00 | 0.00 | 0.00 | 37 | 1005.6 |
| 20260906083619 | 32 | 270 | 8.0 | 17.7 | 0.00 | 0.00 | 0.00 | 37 | 1005.5 |
| 20260906083118 | 31 | 270 | 8.0 | 17.7 | 0.00 | 0.00 | 0.00 | 40 | 1005.7 |
| 20260906082620 | 32 | 270 | 6.4 | 20.9 | 0.00 | 0.00 | 0.00 | 40 | 1005.8 |
| 20260906082117 | 31 | 225 | 9.7 | 20.9 | 0.00 | 0.00 | 0.00 | 41 | 1005.9 |
| 20260906081618 | 31 | 270 | 6.4 | 20.9 | 0.00 | 0.00 | 0.00 | 42 | 1006.0 |
| 20260906081117 | 31 | 293 | 3.2 | 20.9 | 0.00 | 0.00 | 0.00 | 42 | 1006.0 |
| 20260906080618 | 31 | 270 | 4.8 | 17.7 | 0.00 | 0.00 | 0.00 | 42 | 1006.0 |
| 20260906080117 | 31 | 270 | 4.8 | 22.5 | 0.00 | 0.00 | 0.00 | 43 | 1006.0 |
| 20260906075618 | 30 | 180 | 8.0 | 17.7 | 0.00 | 0.00 | 0.00 | 42 | 1006.1 |
| 20260906075115 | 28 | 315 | 3.2 | 8.0 | 0.00 | 0.00 | 0.00 | 48 | 1006.1 |
| 20260906074616 | 28 | 270 | 3.2 | 17.7 | 0.00 | 0.00 | 0.00 | 46 | 1006.1 |
| 20260906074115 | 28 | 225 | 4.8 | 12.9 | 0.00 | 0.00 | 0.00 | 49 | 1006.1 |
| 20260906073615 | 28 | 0 | 3.2 | 12.9 | 0.00 | 0.00 | 0.00 | 51 | 1006.1 |
| 20260906073115 | 28 | 225 | 4.8 | 16.1 | 0.00 | 0.00 | 0.00 | 52 | 1006.1 |
| 20260906072615 | 28 | 90 | 3.2 | 17.7 | 0.00 | 0.00 | 0.00 | 52 | 1006.3 |
| 20260906072114 | 28 | 270 | 0.0 | 8.0 | 0.00 | 0.00 | 0.00 | 54 | 1006.5 |
| 20260906071613 | 28 | 270 | 0.0 | 9.7 | 0.00 | 0.00 | 0.00 | 56 | 1006.6 |
| 20260906071114 | 27 | 135 | 3.2 | 14.5 | 0.00 | 0.00 | 0.00 | 56 | 1006.6 |
| 20260906070614 | 27 | 270 | 3.2 | 11.3 | 0.00 | 0.00 | 0.00 | 55 | 1006.6 |
| 20260906070114 | 28 | 135 | 3.2 | 19.3 | 0.00 | 0.00 | 0.00 | 55 | 1006.5 |
| 20260906065615 | 28 | 225 | 3.2 | 12.9 | 0.00 | 0.00 | 0.00 | 56 | 1006.6 |
| 20260906065112 | 28 | 0 | 4.8 | 12.9 | 0.00 | 0.00 | 0.00 | 55 | 1006.7 |
| 20260906064611 | 28 | 225 | 4.8 | 16.1 | 0.00 | 0.00 | 0.00 | 55 | 1006.8 |
| 20260906064112 | 29 | 0 | 3.2 | 14.5 | 0.00 | 0.00 | 0.00 | 54 | 1006.7 |
| 20260906063611 | 28 | 270 | 1.6 | 12.9 | 0.00 | 0.00 | 0.00 | 56 | 1006.8 |
| 20260906063112 | 28 | 90 | 0.0 | 9.7 | 0.00 | 0.00 | 0.00 | 59 | 1006.8 |
| 20260906062612 | 27 | 180 | 3.2 | 17.7 | 0.00 | 0.00 | 0.00 | 60 | 1006.9 |
| 20260906062111 | 27 | 225 | 1.6 | 12.9 | 0.00 | 0.00 | 0.00 | 60 | 1006.9 |
| 20260906061610 | 27 | 90 | 0.0 | 16.1 | 0.00 | 0.00 | 0.00 | 62 | 1007.1 |
| 20260906061111 | 27 | 270 | 3.2 | 16.1 | 0.00 | 0.00 | 0.00 | 63 | 1007.3 |
| 20260906060610 | 27 | 0 | 3.2 | 11.3 | 0.00 | 0.00 | 0.00 | 63 | 1007.4 |
| 20260906060111 | 26 | 225 | 3.2 | 16.1 | 0.00 | 0.00 | 0.00 | 64 | 1007.5 |
| 20260906055611 | 26 | 225 | 3.2 | 16.1 | 0.00 | 0.00 | 0.00 | 65 | 1007.5 |
| 20260906055110 | 26 | 248 | 3.2 | 12.9 | 0.00 | 0.00 | 0.00 | 66 | 1007.6 |
| 20260906054609 | 25 | 248 | 6.4 | 12.9 | 0.00 | 0.00 | 0.00 | 67 | 1007.6 |
| 20260906054110 | 25 | 225 | 3.2 | 12.9 | 0.00 | 0.00 | 0.00 | 69 | 1007.6 |
| 20260906053609 | 24 | 225 | 6.4 | 12.9 | 0.00 | 0.00 | 0.00 | 69 | 1007.6 |
| 20260906053109 | 25 | 248 | 3.2 | 12.9 | 0.00 | 0.00 | 0.00 | 68 | 1007.7 |
| 20260906052609 | 24 | 225 | 4.8 | 14.5 | 0.00 | 0.00 | 0.00 | 69 | 1007.7 |
| 20260906052109 | 24 | 270 | 4.8 | 14.5 | 0.00 | 0.00 | 0.00 | 70 | 1007.8 |
| 20260906051609 | 23 | 180 | 3.2 | 11.3 | 0.00 | 0.00 | 0.00 | 71 | 1007.8 |
| 20260906051109 | 23 | 225 | 4.8 | 12.9 | 0.00 | 0.00 | 0.00 | 72 | 1007.8 |
| 20260906050609 | 23 | 270 | 1.6 | 11.3 | 0.00 | 0.00 | 0.00 | 72 | 1007.9 |
| 20260906050109 | 22 | 0 | 4.8 | 11.3 | 0.00 | 0.00 | 0.00 | 73 | 1008.0 |
| 20260906045609 | 22 | 225 | 6.4 | 12.9 | 0.00 | 0.00 | 0.00 | 74 | 1008.1 |
| 20260906045109 | 22 | 225 | 3.2 | 8.0 | 0.00 | 0.00 | 0.00 | 74 | 1008.1 |
| 20260906044609 | 22 | 315 | 0.0 | 11.3 | 0.00 | 0.00 | 0.00 | 74 | 1008.0 |
| 20260906044108 | 21 | 158 | 1.6 | 11.3 | 0.00 | 0.00 | 0.00 | 75 | 1008.1 |
| 20260906043609 | 21 | 248 | 4.8 | 11.3 | 0.00 | 0.00 | 0.00 | 75 | 1008.2 |
| 20260906043108 | 21 | 225 | 0.0 | 8.0 | 0.00 | 0.00 | 0.00 | 75 | 1008.2 |
| 20260906042609 | 21 | 270 | 1.6 | 9.7 | 0.00 | 0.00 | 0.00 | 75 | 1008.1 |
| 20260906042108 | 20 | 0 | 3.2 | 8.0 | 0.00 | 0.00 | 0.00 | 75 | 1008.1 |
| 20260906041609 | 20 | 270 | 3.2 | 8.0 | 0.00 | 0.00 | 0.00 | 75 | 1008.2 |
| 20260906041108 | 20 | 225 | 3.2 | 9.7 | 0.00 | 0.00 | 0.00 | 75 | 1008.2 |
| 20260906040608 | 20 | 315 | 0.0 | 4.8 | 0.00 | 0.00 | 0.00 | 75 | 1008.3 |
| 20260906040109 | 20 | 135 | 0.0 | 3.2 | 0.00 | 0.00 | 0.00 | 76 | 1008.3 |
| 20260906035609 | 19 | 0 | 0.0 | 3.2 | 0.00 | 0.00 | 0.00 | 76 | 1008.3 |
| 20260906035108 | 19 | 135 | 0.0 | 1.6 | 0.00 | 0.00 | 0.00 | 76 | 1008.2 |
| 20260906034608 | 18 | 270 | 0.0 | 3.2 | 0.00 | 0.00 | 0.00 | 75 | 1008.2 |
| 20260906034108 | 18 | 270 | 0.0 | 3.2 | 0.00 | 0.00 | 0.00 | 75 | 1008.2 |
| 20260906033608 | 18 | 180 | 0.0 | 1.6 | 0.00 | 0.00 | 0.00 | 76 | 1008.2 |
| 20260906033108 | 18 | 135 | 0.0 | 3.2 | 0.00 | 0.00 | 0.00 | 76 | 1008.2 |
| 20260906032608 | 18 | 203 | 0.0 | 1.6 | 0.00 | 0.00 | 0.00 | 76 | 1008.2 |
| 20260906032108 | 17 | 270 | 0.0 | 1.6 | 0.00 | 0.00 | 0.00 | 76 | 1008.2 |
| 20260906031608 | 17 | 180 | 0.0 | 1.6 | 0.00 | 0.00 | 0.00 | 76 | 1008.2 |
| 20260906031107 | 17 | 270 | 0.0 | 3.2 | 0.00 | 0.00 | 0.00 | 76 | 1008.1 |
| 20260906030608 | 17 | 135 | 0.0 | 1.6 | 0.00 | 0.00 | 0.00 | 76 | 1008.1 |
| 20260906030108 | 17 | 90 | 0.0 | 1.6 | 0.00 | 0.00 | 0.00 | 75 | 1008.1 |
| 20260906025608 | 17 | 0 | 0.0 | 3.2 | 0.00 | 0.00 | 0.00 | 75 | 1008.1 |
| 20260906025107 | 17 | 135 | 0.0 | 1.6 | 0.00 | 0.00 | 0.00 | 75 | 1008.0 |
| 20260906024608 | 17 | 315 | 0.0 | 1.6 | 0.00 | 0.00 | 0.00 | 75 | 1008.1 |
| 20260906024108 | 18 | 270 | 0.0 | 1.6 | 0.00 | 0.00 | 0.00 | 75 | 1008.0 |
| 20260906023608 | 18 | 315 | 0.0 | 1.6 | 0.00 | 0.00 | 0.00 | 74 | 1007.9 |
| 20260906023108 | 18 | 270 | 0.0 | 3.2 | 0.00 | 0.00 | 0.00 | 74 | 1007.9 |
| 20260906022607 | 17 | 180 | 0.0 | 3.2 | 0.00 | 0.00 | 0.00 | 75 | 1007.8 |
| 20260906022108 | 17 | 270 | 0.0 | 4.8 | 0.00 | 0.00 | 0.00 | 75 | 1007.8 |
| 20260906021607 | 17 | 315 | 0.0 | 1.6 | 0.00 | 0.00 | 0.00 | 75 | 1007.8 |
| 20260906021108 | 17 | 270 | 0.0 | 3.2 | 0.00 | 0.00 | 0.00 | 75 | 1007.8 |
| 20260906020607 | 17 | 270 | 0.0 | 3.2 | 0.00 | 0.00 | 0.00 | 76 | 1007.8 |
| 20260906020108 | 17 | 180 | 0.0 | 3.2 | 0.00 | 0.00 | 0.00 | 76 | 1007.8 |
| 20260906015607 | 17 | 315 | 0.0 | 0.0 | 0.00 | 0.00 | 0.00 | 76 | 1007.7 |
| 20260906015107 | 17 | 270 | 0.0 | 0.0 | 0.00 | 0.00 | 0.00 | 76 | 1007.6 |
| 20260906014607 | 17 | 135 | 0.0 | 3.2 | 0.00 | 0.00 | 0.00 | 76 | 1007.7 |
| 20260906014107 | 17 | 135 | 0.0 | 0.0 | 0.00 | 0.00 | 0.00 | 76 | 1007.8 |
| 20260906013607 | 17 | 270 | 0.0 | 0.0 | 0.00 | 0.00 | 0.00 | 76 | 1007.9 |
| 20260906013107 | 17 | 180 | 0.0 | 0.0 | 0.00 | 0.00 | 0.00 | 76 | 1007.9 |
| 20260906012606 | 17 | 180 | 0.0 | 1.6 | 0.00 | 0.00 | 0.00 | 77 | 1007.9 |
| 20260906012107 | 17 | 135 | 0.0 | 0.0 | 0.00 | 0.00 | 0.00 | 76 | 1007.9 |
| 20260906011607 | 17 | 225 | 0.0 | 1.6 | 0.00 | 0.00 | 0.00 | 76 | 1008.0 |
| 20260906011107 | 17 | 180 | 0.0 | 1.6 | 0.00 | 0.00 | 0.00 | 76 | 1008.1 |
| 20260906010607 | 17 | 90 | 0.0 | 1.6 | 0.00 | 0.00 | 0.00 | 77 | 1008.2 |
| 20260906010107 | 17 | 90 | 0.0 | 0.0 | 0.00 | 0.00 | 0.00 | 77 | 1008.1 |
| 20260906005607 | 17 | 90 | 0.0 | 0.0 | 0.00 | 0.00 | 0.00 | 76 | 1008.2 |
| 20260906005107 | 17 | 90 | 0.0 | 0.0 | 0.00 | 0.00 | 0.00 | 76 | 1008.3 |
| 20260906004607 | 17 | 90 | 0.0 | 0.0 | 0.00 | 0.00 | 0.00 | 76 | 1008.4 |
| 20260906004106 | 17 | 45 | 0.0 | 0.0 | 0.00 | 0.00 | 0.00 | 76 | 1008.3 |
| 20260906003607 | 17 | 45 | 0.0 | 0.0 | 0.00 | 0.00 | 0.00 | 76 | 1008.4 |
| 20260906003106 | 17 | 90 | 0.0 | 0.0 | 0.00 | 0.00 | 0.00 | 75 | 1008.4 |
| 20260906002607 | 17 | 90 | 0.0 | 0.0 | 0.00 | 0.00 | 0.00 | 74 | 1008.4 |
| 20260906002106 | 17 | 90 | 0.0 | 0.0 | 0.00 | 0.00 | 0.00 | 73 | 1008.4 |
| 20260906001607 | 17 | 135 | 0.0 | 0.0 | 0.00 | 0.00 | 0.00 | 73 | 1008.5 |
| 20260906001106 | 17 | 90 | 0.0 | 0.0 | 0.00 | 0.00 | 0.00 | 73 | 1008.4 |
| 20260906000606 | 17 | 45 | 0.0 | 1.6 | 0.00 | 0.00 | 0.00 | 72 | 1008.4 |
| 20260906000106 | 17 | 45 | 0.0 | 1.6 | 0.00 | 0.00 | 0.00 | 72 | 1008.4 |
| 20260905235606 | 17 | 180 | 0.0 | 3.2 | 0.00 | 0.00 | 0.00 | 72 | 1008.4 |
| 20260905235106 | 17 | 90 | 0.0 | 1.6 | 0.00 | 0.00 | 0.00 | 72 | 1008.5 |
| 20260905234606 | 17 | 180 | 0.0 | 0.0 | 0.00 | 0.00 | 0.00 | 71 | 1008.5 |
| 20260905234106 | 17 | 180 | 0.0 | 1.6 | 0.00 | 0.00 | 0.00 | 71 | 1008.6 |
| 20260905233606 | 17 | 135 | 0.0 | 1.6 | 0.00 | 0.00 | 0.00 | 71 | 1008.5 |
| 20260905233106 | 17 | 180 | 0.0 | 1.6 | 0.00 | 0.00 | 0.00 | 71 | 1008.5 |
| 20260905232606 | 17 | 180 | 0.0 | 0.0 | 0.00 | 0.00 | 0.00 | 71 | 1008.5 |
| 20260905232106 | 17 | 225 | 0.0 | 0.0 | 0.00 | 0.00 | 0.00 | 71 | 1008.6 |
| 20260905231605 | 17 | 90 | 0.0 | 1.6 | 0.00 | 0.00 | 0.00 | 70 | 1008.5 |
| 20260905231106 | 17 | 45 | 0.0 | 0.0 | 0.00 | 0.00 | 0.00 | 70 | 1008.5 |
| 20260905230605 | 17 | 90 | 0.0 | 0.0 | 0.00 | 0.00 | 0.00 | 70 | 1008.5 |
| 20260905230106 | 17 | 90 | 0.0 | 0.0 | 0.00 | 0.00 | 0.00 | 70 | 1008.5 |
| 20260905225106 | 18 | 90 | 0.0 | 0.0 | 0.00 | 0.00 | 0.00 | 69 | 1008.4 |
| 20260905224605 | 18 | 90 | 0.0 | 0.0 | 0.00 | 0.00 | 0.00 | 69 | 1008.5 |
| 20260905224106 | 18 | 90 | 0.0 | 0.0 | 0.00 | 0.00 | 0.00 | 68 | 1008.5 |
| 20260905223605 | 18 | 90 | 0.0 | 0.0 | 0.00 | 0.00 | 0.00 | 68 | 1008.5 |
| 20260905223105 | 18 | 90 | 0.0 | 0.0 | 0.00 | 0.00 | 0.00 | 67 | 1008.5 |
| 20260905222605 | 18 | 270 | 0.0 | 0.0 | 0.00 | 0.00 | 0.00 | 67 | 1008.5 |
| 20260905222105 | 18 | 135 | 0.0 | 0.0 | 0.00 | 0.00 | 0.00 | 67 | 1008.5 |
| 20260905221605 | 18 | 135 | 0.0 | 1.6 | 0.00 | 0.00 | 0.00 | 66 | 1008.5 |
| 20260905221105 | 18 | 45 | 0.0 | 1.6 | 0.00 | 0.00 | 0.00 | 66 | 1008.5 |
| 20260905220605 | 18 | 0 | 0.0 | 0.0 | 0.00 | 0.00 | 0.00 | 65 | 1008.5 |
| 20260905220105 | 18 | 45 | 0.0 | 0.0 | 0.00 | 0.00 | 0.00 | 65 | 1008.5 |
| 20260905215605 | 18 | 180 | 0.0 | 1.6 | 0.00 | 0.00 | 0.00 | 64 | 1008.5 |
| 20260905215105 | 18 | 180 | 0.0 | 0.0 | 0.00 | 0.00 | 0.00 | 64 | 1008.5 |
| 20260905214606 | 18 | 225 | 0.0 | 0.0 | 0.00 | 0.00 | 0.00 | 64 | 1008.5 |
| 20260905214105 | 18 | 180 | 0.0 | 1.6 | 0.00 | 0.00 | 0.00 | 64 | 1008.5 |
| 20260905213604 | 18 | 180 | 0.0 | 1.6 | 0.00 | 0.00 | 0.00 | 63 | 1008.6 |
| 20260905213105 | 18 | 0 | 0.0 | 1.6 | 0.00 | 0.00 | 0.00 | 63 | 1008.6 |
| 20260905212605 | 18 | 225 | 0.0 | 1.6 | 0.00 | 0.00 | 0.00 | 63 | 1008.6 |
| 20260905212105 | 18 | 135 | 0.0 | 3.2 | 0.00 | 0.00 | 0.00 | 64 | 1008.7 |
| 20260905211605 | 18 | 135 | 0.0 | 1.6 | 0.00 | 0.00 | 0.00 | 63 | 1008.6 |
| 20260905211104 | 18 | 180 | 0.0 | 1.6 | 0.00 | 0.00 | 0.00 | 63 | 1008.7 |
| 20260905210605 | 18 | 158 | 0.0 | 1.6 | 0.00 | 0.00 | 0.00 | 63 | 1008.7 |
| 20260905210104 | 19 | 135 | 0.0 | 0.0 | 0.00 | 0.00 | 0.00 | 63 | 1008.7 |
| 20260905205605 | 19 | 180 | 0.0 | 1.6 | 0.00 | 0.00 | 0.00 | 63 | 1008.7 |
| 20260905205104 | 19 | 0 | 0.0 | 1.6 | 0.00 | 0.00 | 0.00 | 63 | 1008.7 |
| 20260905204605 | 19 | 180 | 0.0 | 1.6 | 0.00 | 0.00 | 0.00 | 63 | 1008.8 |
| 20260905204104 | 19 | 180 | 0.0 | 3.2 | 0.00 | 0.00 | 0.00 | 64 | 1008.7 |
| 20260905203605 | 19 | 180 | 0.0 | 1.6 | 0.00 | 0.00 | 0.00 | 63 | 1008.7 |
| 20260905203104 | 19 | 0 | 0.0 | 1.6 | 0.00 | 0.00 | 0.00 | 64 | 1008.7 |
| 20260905202604 | 19 | 180 | 0.0 | 0.0 | 0.00 | 0.00 | 0.00 | 64 | 1008.8 |
| 20260905202104 | 19 | 270 | 0.0 | 0.0 | 0.00 | 0.00 | 0.00 | 63 | 1008.9 |
| 20260905201605 | 19 | 180 | 0.0 | 0.0 | 0.00 | 0.00 | 0.00 | 63 | 1008.9 |
| 20260905201105 | 19 | 0 | 0.0 | 0.0 | 0.00 | 0.00 | 0.00 | 62 | 1009.0 |
| 20260905200602 | 19 | 0 | 0.0 | 0.0 | 0.00 | 0.00 | 0.00 | 62 | 1009.1 |
| 20260905195602 | 19 | 90 | 0.0 | 0.0 | 0.00 | 0.00 | 0.00 | 61 | 1009.0 |
| 20260905195102 | 19 | 180 | 0.0 | 1.6 | 0.00 | 0.00 | 0.00 | 61 | 1009.0 |
| 20260905194602 | 19 | 180 | 0.0 | 0.0 | 0.00 | 0.00 | 0.00 | 61 | 1009.1 |
| 20260905194102 | 19 | 0 | 0.0 | 0.0 | 0.00 | 0.00 | 0.00 | 60 | 1009.0 |
| 20260905193601 | 19 | 90 | 0.0 | 0.0 | 0.00 | 0.00 | 0.00 | 60 | 1009.0 |
| 20260905193100 | 19 | 180 | 0.0 | 1.6 | 0.00 | 0.00 | 0.00 | 60 | 1009.1 |
| 20260905192601 | 18 | 180 | 0.0 | 1.6 | 0.00 | 0.00 | 0.00 | 61 | 1009.1 |
| 20260905192101 | 18 | 180 | 0.0 | 0.0 | 0.00 | 0.00 | 0.00 | 61 | 1009.1 |
| 20260905191601 | 18 | 90 | 0.0 | 0.0 | 0.00 | 0.00 | 0.00 | 60 | 1009.1 |
| 20260905191101 | 19 | 90 | 0.0 | 0.0 | 0.00 | 0.00 | 0.00 | 60 | 1009.1 |
| 20260905190559 | 19 | 90 | 0.0 | 0.0 | 0.00 | 0.00 | 0.00 | 60 | 1009.2 |
| 20260905190059 | 20 | 90 | 0.0 | 0.0 | 0.00 | 0.00 | 0.00 | 60 | 1009.3 |
| 20260905185558 | 20 | 90 | 0.0 | 0.0 | 0.00 | 0.00 | 0.00 | 60 | 1009.3 |
| 20260905185059 | 20 | 90 | 0.0 | 0.0 | 0.00 | 0.00 | 0.00 | 59 | 1009.4 |
| 20260905184558 | 20 | 270 | 0.0 | 0.0 | 0.00 | 0.00 | 0.00 | 61 | 1009.4 |
| 20260905184059 | 20 | 270 | 0.0 | 0.0 | 0.00 | 0.00 | 0.00 | 60 | 1009.3 |
| 20260905183057 | 20 | 0 | 0.0 | 0.0 | 0.00 | 0.00 | 0.00 | 61 | 1009.3 |
| 20260905182557 | 20 | 270 | 0.0 | 0.0 | 0.00 | 0.00 | 0.00 | 60 | 1009.3 |
| 20260905182057 | 20 | 270 | 0.0 | 0.0 | 0.00 | 0.00 | 0.00 | 60 | 1009.4 |
| 20260905181557 | 21 | 270 | 0.0 | 0.0 | 0.00 | 0.00 | 0.00 | 58 | 1009.4 |
| 20260905181057 | 21 | 270 | 0.0 | 0.0 | 0.00 | 0.00 | 0.00 | 58 | 1009.4 |
| 20260905180555 | 21 | 270 | 0.0 | 0.0 | 0.00 | 0.00 | 0.00 | 56 | 1009.4 |
| 20260905180056 | 21 | 270 | 0.0 | 0.0 | 0.00 | 0.00 | 0.00 | 55 | 1009.5 |
| 20260905175556 | 22 | 270 | 0.0 | 0.0 | 0.00 | 0.00 | 0.00 | 54 | 1009.5 |
| 20260905175056 | 22 | 270 | 0.0 | 0.0 | 0.00 | 0.00 | 0.00 | 54 | 1009.4 |
| 20260905174555 | 22 | 0 | 0.0 | 0.0 | 0.00 | 0.00 | 0.00 | 54 | 1009.4 |
| 20260905174056 | 22 | 270 | 0.0 | 0.0 | 0.00 | 0.00 | 0.00 | 53 | 1009.4 |
| 20260905173553 | 22 | 0 | 0.0 | 0.0 | 0.00 | 0.00 | 0.00 | 53 | 1009.4 |
| 20260905173054 | 22 | 270 | 0.0 | 0.0 | 0.00 | 0.00 | 0.00 | 52 | 1009.4 |
| 20260905172553 | 23 | 270 | 0.0 | 0.0 | 0.00 | 0.00 | 0.00 | 51 | 1009.4 |
| 20260905172054 | 23 | 270 | 0.0 | 0.0 | 0.00 | 0.00 | 0.00 | 50 | 1009.5 |
| 20260905171554 | 23 | 315 | 0.0 | 1.6 | 0.00 | 0.00 | 0.00 | 49 | 1009.5 |
| 20260905171054 | 23 | 270 | 0.0 | 3.2 | 0.00 | 0.00 | 0.00 | 50 | 1009.5 |
| 20260905170553 | 23 | 270 | 0.0 | 1.6 | 0.00 | 0.00 | 0.00 | 49 | 1009.5 |
| 20260905170052 | 23 | 225 | 0.0 | 1.6 | 0.00 | 0.00 | 0.00 | 48 | 1009.4 |
| 20260905165553 | 23 | 270 | 0.0 | 0.0 | 0.00 | 0.00 | 0.00 | 47 | 1009.4 |
| 20260905165053 | 24 | 315 | 0.0 | 3.2 | 0.00 | 0.00 | 0.00 | 47 | 1009.3 |
| 20260905164554 | 24 | 270 | 0.0 | 3.2 | 0.00 | 0.00 | 0.00 | 46 | 1009.3 |
| 20260905164053 | 25 | 315 | 0.0 | 3.2 | 0.00 | 0.00 | 0.00 | 45 | 1009.3 |
| 20260905163553 | 25 | 270 | 1.6 | 4.8 | 0.00 | 0.00 | 0.00 | 44 | 1009.2 |
| 20260905163053 | 25 | 225 | 0.0 | 6.4 | 0.00 | 0.00 | 0.00 | 44 | 1009.2 |
| 20260905162553 | 25 | 270 | 1.6 | 8.0 | 0.00 | 0.00 | 0.00 | 43 | 1009.2 |
| 20260905162053 | 25 | 315 | 1.6 | 8.0 | 0.00 | 0.00 | 0.00 | 42 | 1009.1 |
| 20260905161554 | 25 | 0 | 1.6 | 8.0 | 0.00 | 0.00 | 0.00 | 42 | 1008.9 |
| 20260905161053 | 25 | 270 | 1.6 | 6.4 | 0.00 | 0.00 | 0.00 | 41 | 1008.9 |
| 20260905160553 | 26 | 270 | 1.6 | 4.8 | 0.00 | 0.00 | 0.00 | 41 | 1008.9 |
| 20260905160053 | 26 | 293 | 3.2 | 8.0 | 0.00 | 0.00 | 0.00 | 41 | 1008.8 |
| 20260905155553 | 26 | 270 | 1.6 | 8.0 | 0.00 | 0.00 | 0.00 | 41 | 1008.8 |
| 20260905155053 | 26 | 0 | 1.6 | 8.0 | 0.00 | 0.00 | 0.00 | 41 | 1008.8 |
| 20260905154553 | 26 | 315 | 3.2 | 8.0 | 0.00 | 0.00 | 0.00 | 41 | 1008.7 |
| 20260905154052 | 27 | 180 | 3.2 | 11.3 | 0.00 | 0.00 | 0.00 | 40 | 1008.7 |
| 20260905153553 | 27 | 270 | 4.8 | 12.9 | 0.00 | 0.00 | 0.00 | 40 | 1008.7 |
| 20260905153052 | 27 | 270 | 3.2 | 8.0 | 0.00 | 0.00 | 0.00 | 39 | 1008.6 |
| 20260905152553 | 27 | 270 | 4.8 | 9.7 | 0.00 | 0.00 | 0.00 | 39 | 1008.6 |
| 20260905152052 | 27 | 270 | 3.2 | 11.3 | 0.00 | 0.00 | 0.00 | 38 | 1008.6 |
| 20260905151553 | 28 | 225 | 3.2 | 12.9 | 0.00 | 0.00 | 0.00 | 37 | 1008.5 |
| 20260905151052 | 28 | 338 | 4.8 | 11.3 | 0.00 | 0.00 | 0.00 | 37 | 1008.5 |
| 20260905150553 | 28 | 315 | 4.8 | 11.3 | 0.00 | 0.00 | 0.00 | 36 | 1008.4 |
| 20260905150052 | 28 | 338 | 4.8 | 16.1 | 0.00 | 0.00 | 0.00 | 36 | 1008.5 |
| 20260905145553 | 28 | 225 | 6.4 | 19.3 | 0.00 | 0.00 | 0.00 | 35 | 1008.4 |
| 20260905145052 | 28 | 270 | 8.0 | 17.7 | 0.00 | 0.00 | 0.00 | 35 | 1008.4 |
| 20260905144553 | 28 | 270 | 4.8 | 16.1 | 0.00 | 0.00 | 0.00 | 34 | 1008.4 |
| 20260905144052 | 28 | 225 | 3.2 | 12.9 | 0.00 | 0.00 | 0.00 | 34 | 1008.4 |
| 20260905143553 | 29 | 0 | 8.0 | 17.7 | 0.00 | 0.00 | 0.00 | 33 | 1008.4 |
| 20260905143052 | 29 | 0 | 3.2 | 17.7 | 0.00 | 0.00 | 0.00 | 33 | 1008.4 |
| 20260905142552 | 29 | 23 | 3.2 | 12.9 | 0.00 | 0.00 | 0.00 | 32 | 1008.3 |
| 20260905142052 | 29 | 270 | 6.4 | 12.9 | 0.00 | 0.00 | 0.00 | 31 | 1008.3 |
| 20260905141552 | 29 | 315 | 3.2 | 14.5 | 0.00 | 0.00 | 0.00 | 31 | 1008.2 |
| 20260905141052 | 30 | 180 | 9.7 | 22.5 | 0.00 | 0.00 | 0.00 | 31 | 1008.2 |
| 20260905140552 | 30 | 270 | 4.8 | 14.5 | 0.00 | 0.00 | 0.00 | 32 | 1008.2 |
| 20260905140052 | 30 | 270 | 6.4 | 16.1 | 0.00 | 0.00 | 0.00 | 31 | 1008.1 |
| 20260905135158 | 30 | 270 | 4.8 | 12.9 | 0.00 | 0.00 | 0.00 | 32 | 1008.1 |
| 20260905134658 | 30 | 225 | 6.4 | 22.5 | 0.00 | 0.00 | 0.00 | 31 | 1008.2 |
| 20260905134157 | 30 | 270 | 9.7 | 17.7 | 0.00 | 0.00 | 0.00 | 31 | 1008.1 |
| 20260905133658 | 30 | 270 | 4.8 | 16.1 | 0.00 | 0.00 | 0.00 | 31 | 1008.1 |
| 20260905133157 | 30 | 180 | 8.0 | 20.9 | 0.00 | 0.00 | 0.00 | 30 | 1008.1 |
| 20260905132657 | 30 | 225 | 8.0 | 16.1 | 0.00 | 0.00 | 0.00 | 31 | 1008.1 |
| 20260905132157 | 31 | 0 | 6.4 | 20.9 | 0.00 | 0.00 | 0.00 | 31 | 1008.1 |
| 20260905131657 | 31 | 225 | 6.4 | 17.7 | 0.00 | 0.00 | 0.00 | 31 | 1008.2 |
| 20260905131157 | 31 | 315 | 4.8 | 12.9 | 0.00 | 0.00 | 0.00 | 31 | 1008.1 |
| 20260905130657 | 31 | 225 | 3.2 | 20.9 | 0.00 | 0.00 | 0.00 | 30 | 1008.1 |
| 20260905130157 | 31 | 270 | 8.0 | 17.7 | 0.00 | 0.00 | 0.00 | 30 | 1008.1 |
| 20260905125657 | 31 | 270 | 3.2 | 22.5 | 0.00 | 0.00 | 0.00 | 30 | 1008.2 |
| 20260905125157 | 31 | 270 | 6.4 | 22.5 | 0.00 | 0.00 | 0.00 | 30 | 1008.1 |
| 20260905124657 | 31 | 270 | 11.3 | 22.5 | 0.00 | 0.00 | 0.00 | 31 | 1008.0 |
| 20260905124156 | 31 | 315 | 4.8 | 12.9 | 0.00 | 0.00 | 0.00 | 30 | 1008.0 |
| 20260905123657 | 31 | 270 | 3.2 | 17.7 | 0.00 | 0.00 | 0.00 | 30 | 1008.1 |
| 20260905123156 | 31 | 225 | 8.0 | 19.3 | 0.00 | 0.00 | 0.00 | 30 | 1007.9 |
| 20260905122657 | 31 | 0 | 3.2 | 14.5 | 0.00 | 0.00 | 0.00 | 31 | 1008.0 |
| 20260905122156 | 31 | 270 | 3.2 | 12.9 | 0.00 | 0.00 | 0.00 | 31 | 1008.1 |
| 20260905121657 | 31 | 315 | 3.2 | 11.3 | 0.00 | 0.00 | 0.00 | 31 | 1008.1 |
| 20260905121156 | 31 | 180 | 3.2 | 16.1 | 0.00 | 0.00 | 0.00 | 30 | 1008.0 |
| 20260905120657 | 32 | 180 | 4.8 | 14.5 | 0.00 | 0.00 | 0.00 | 29 | 1008.0 |
| 20260905120156 | 32 | 270 | 3.2 | 12.9 | 0.00 | 0.00 | 0.00 | 31 | 1008.0 |
| 20260905115657 | 31 | 225 | 4.8 | 8.0 | 0.00 | 0.00 | 0.00 | 32 | 1008.1 |
| 20260905115156 | 31 | 180 | 1.6 | 8.0 | 0.00 | 0.00 | 0.00 | 32 | 1008.2 |
| 20260905114657 | 31 | 293 | 0.0 | 11.3 | 0.00 | 0.00 | 0.00 | 32 | 1008.1 |
| 20260905114156 | 31 | 225 | 3.2 | 20.9 | 0.00 | 0.00 | 0.00 | 33 | 1008.2 |
| 20260905113657 | 31 | 270 | 9.7 | 17.7 | 0.00 | 0.00 | 0.00 | 32 | 1008.2 |
| 20260905113156 | 32 | 0 | 6.4 | 16.1 | 0.00 | 0.00 | 0.00 | 33 | 1008.3 |